User: anonymous   Login
Location: Pegasus Observatory
(35.6569°N, 82.5850°W)
Time: 15:11:41
(UTC-04:00)
Language:

YUBILEINY - Orbit

View from above orbital plane
View from above orbital plane
View from above satellite
View from above satellite

Ground track
Ground track

The orbit data is extracted from the following two-line orbital elements,

1 32953U 08025A   20101.54922574  .00000037  00000-0  19437-3 0  9996
2 32953  82.5038 320.1503 0018655 200.1668 159.8680 12.43094983539199
Epoch (UTC): 10 April 2020 13:10:53
Eccentricity: 0.0018655
inclination: 82.5038°
perigee height: 1479 km
apogee height: 1508 km
right ascension of ascending node: 320.1503°
argument of perigee: 200.1668°
revolutions per day: 12.43094983
mean anomaly at epoch: 159.8680°
orbit number at epoch: 53919

The dashed part of the orbit path shows where the satellite is in the earth's shadow,  

DLR